Tracking 31023 objects as of 19-Jul-2025
HD Live streaming from Space Station
objects crossing your sky now

COSMOS 2583

Track COSMOS 2583 now!
10-day predictions


NORAD ID: 62904
Int'l Code: 2025-026C
Perigee: 585.2 km
Apogee: 601.8 km
Inclination: 82.0 °
Period: 96.4 minutes
Semi major axis: 6964 km
RCS: Unknown
Launch date: February 5, 2025
Source: Commonwealth of Independent States (former USSR) (CIS)
Launch site: PLESETSK MISSILE AND SPACE COMPLEX (PKMTR)
Your satellite tracking list
Your tracking list is empty




NASA's NSSDC Master Catalog

Two Line Element Set (TLE):
1 62904U 25026C   25200.70950826  .00001797  00000-0  16753-3 0  9991
2 62904  81.9947  53.4037 0011915  77.7520 282.5032 14.93702683 24548
Source of the keplerian elements: AFSPC